Regional Weather Roundup
Issued by NWS

Home | Current Version | Previous Version | Graphics & Text | Print | Product List | Glossary On
Versions: 1 2 3 4 5 6 7 8 9 10 11 12 13 14 15 16 17 18 19 20 21 22 23 24 25 26 27 28 29 30 31 32 33 34 35 36 37 38 39 40 41 42 43 44 45 46 47 48 49 50
000
ASUS43 KFSD 270510
RWRSD

WEATHER ROUNDUP FOR SOUTH DAKOTA
NATIONAL WEATHER SERVICE SIOUX FALLS SD
1200 AM CDT TUE JUN 27 2017

NOTE: "FAIR" INDICATES FEW OR NO CLOUDS BELOW 12,000 FEET WITH NO
SIGNIFICANT WEATHER AND/OR OBSTRUCTIONS TO VISIBILITY.


SDZ001>005-009-010-012>017-270600-
NORTHWEST AND NORTH CENTRAL SOUTH DAKOTA

CITY           SKY/WX    TMP DP  RH WIND       PRES   REMARKS
BUFFALO          N/A     65  40  39 SE21G26   29.88F
FAITH            N/A     61  40  45 SE22      29.99F
MOBRIDGE       CLOUDY    62  38  40 SE14      30.02F
$$

SDZ012>016-024>037-041>051-057-063-072>074-270600-
SOUTHWEST AND SOUTH CENTRAL SOUTH DAKOTA

CITY           SKY/WX    TMP DP  RH WIND       PRES   REMARKS
RAPID CTY ARPT CLEAR     60  40  47 S10       30.00F
PIERRE         CLEAR     57  43  59 E8        30.04F
CUSTER         CLEAR     59  35  40 CALM      30.13F
ELLSWORTH AFB  CLEAR     62  40  43 S15       29.99F
PHILIP         CLEAR     62  40  44 SE12      30.02F
PINE RIDGE     CLEAR     67  41  38 SE23G32   30.04F
SPEARFISH      FAIR      70  41  35 S12G20    29.94F
WINNER         FAIR      57  38  48 SE12      30.09F
$$

SDZ004>011-016>023-039-040-270600-
NORTHEAST SOUTH DAKOTA

CITY           SKY/WX    TMP DP  RH WIND       PRES   REMARKS
ABERDEEN       CLEAR     51  42  71 S9        30.09F
WATERTOWN      CLEAR     54  41  61 S3        30.13S
BROOKINGS      CLEAR     53  41  63 CALM      30.14S
SISSETON         N/A     51  44  77 S6        30.09F
$$

SDZ017-020-022-023-036>040-048>070-270600-
SOUTHEAST SOUTH DAKOTA

CITY           SKY/WX    TMP DP  RH WIND       PRES   REMARKS
SIOUX FALLS    CLEAR     54  48  80 CALM      30.14F
HURON          CLEAR     54  42  64 SE7       30.11F
CHAMBERLAIN    CLEAR     54  43  66 E8        30.10S
MITCHELL       CLEAR     54  43  66 SE5       30.12F
YANKTON        CLEAR     58  43  57 CALM      30.14F
$$

ABBREVIATIONS USED IN REMARKS
   TC - TEMPERATURE IN CELSIUS
  WCI - WIND CHILL INDEX
   HX - HEAT INDEX
  VSB - VISIBILITY





USA.gov is the U.S. government's official web portal to all federal, state and local government web resources and services.